Notices

What's New in latest Release from April 7th, 2021:

- Updated Glossary, including Speed of Maximum Gust, and Total Hourly Precipitation

- Updated national and regional climate services offices contacts and prices information

- Addition of station inventory lists for 1981-2010, 1971-2000, and 1961-1990 Normals.

If you haven't already, please take our survey and provide feedback about our website: https://eccc.sondage-survey.ca/f/LanguageSelection.aspx?s=442ca660-fcf1-47c0-95a9-59707d6fd709

Hourly Data Report for January 24, 2021

EDMUNDSTON
NEW BRUNSWICK
Current Station Operator: ECCC - MSC

47°25'00.000" N
68°19'28.040" W
154.20 m
8101303
71590
ERM

Download Data

Hourly Data (January 2021)
Hourly Data Report for January 24, 2021
TIME
LST
Temp Definition
°C
Dew Point Definition
°C
Rel Hum Definition
%
Precip. Amount Definition
mm

Wind Dir Definition
10's deg

Wind Spd Definition
km/h
Visibility Definition
km
Stn Press Definition
kPa
Hmdx Definition


Wind Chill Definition


Weather Definition


00:00 -10.9 -15.2 71 0.0 30 25   98.08   -20 LegendNANA
01:00 -11.0 -15.4 70 0.0 31 22   98.04   -20 LegendNANA
02:00 -11.1 -15.0 73 0.0 31 18   97.99   -19 LegendNANA
03:00 -11.0 -14.5 75 0.0 31 21   97.99   -19 LegendNANA
04:00 -11.0 -14.4 76 0.0 31 17   97.99   -18 LegendNANA
05:00 -11.0 -14.8 74 0.0 31 20   98.03   -19 LegendNANA
06:00 -11.0 -14.9 73 0.0 31 20   98.09   -19 LegendNANA
07:00 -11.0 -14.8 73 0.0 31 14   98.18   -18 LegendNANA
08:00 -11.0 -15.0 73 0.0 31 14   98.28   -18 LegendNANA
09:00 -11.0 -15.0 72 0.0 31 17   98.36   -18 LegendNANA
10:00 -10.4 -14.6 71 0.0 31 23   98.41   -19 LegendNANA
11:00 -9.3 -13.8 70 0.0 30 14   98.47   -16 LegendNANA
12:00 -8.3 -13.3 67 0.0 30 14   98.45   -14 LegendNANA
13:00 -6.9 -12.5 64 0.0 31 21   98.45   -14 LegendNANA
14:00 -6.4 -11.8 65 0.0 32 21   98.50   -13 LegendNANA
15:00 -6.6 -11.5 68 0.0 30 17   98.58   -13 LegendNANA
16:00 -7.0 -11.6 70 0.0 29 18   98.69   -14 LegendNANA
17:00 -7.1 -11.2 72 0.0 31 17   98.78   -14 LegendNANA
18:00 -7.2 -11.3 72 0.0 32 13   98.86   -13 LegendNANA
19:00 -7.5 -10.8 78 0.0 32 14   98.92   -13 LegendNANA
20:00 -7.6 -10.8 77 0.0 32 15   98.96   -14 LegendNANA
21:00 -7.6 -10.8 78 0.0 31 11   98.97   -13 LegendNANA
22:00 -7.7 -10.9 78 0.0 32 12   98.99   -13 LegendNANA
23:00 -7.7 -10.9 78 0.0 30 12   99.00   -13 LegendNANA

Notes on Data Quality.

Legend

  • E = Estimated
  • M = Missing
  • NA = Not Available*
  • [empty] = Indicates an unobserved value
Date modified: